Location: *
(49.9853°N, 3.5569°E)
Time: 02:04:09
(UTC+00:00)

Okean 1 Rocket - Pass Details

Date: 22 September 2019
Orbit: 607 x 634 km, 82.5° (Epoch: 12 October)

Event Time Altitude Azimuth Distance (km) Brightness Sun altitude
Rises 18:29:46 0° 185° (S) 2,857 6.4 -8.0°
Reaches altitude 10° 18:31:58 10° 184° (S) 1,960 5.6 -8.4°
Maximum altitude 18:36:18 79° 98° (E) 631 3.0 -9.1°
Drops below altitude 10° 18:40:42 10° 12° (NNE) 1,989 5.7 -9.8°
Sets 18:42:56 0° 12° (NNE) 2,903 6.5 -10.1°
